DW8024 Weather Reports


time (UTC)temp
C
wind
direction
speed
KPH
gust
KPH
rain 1hr
cm
rain 24hr
cm
rain mn
cm
humidity
%
barometer
mb
20260506003009 7 45 6.4 17.7 0.00 0.00 0.00 75 1015.0
20260506002506 7 43 8.0 17.7 0.00 0.00 0.00 75 1014.9
20260506002006 7 47 8.0 14.5 0.00 0.00 0.00 75 1014.9
20260506001005 7 61 6.4 16.1 0.00 0.00 0.00 75 1014.9
20260506000505 7 63 9.7 22.5 0.00 0.00 0.00 75 1014.9
20260505235506 7 45 6.4 17.7 0.00 0.00 0.00 77 1014.8
20260505235005 7 45 6.4 17.7 0.00 0.00 0.00 77 1014.9
20260505234509 7 51 6.4 14.5 0.00 0.00 0.00 78 1015.0
20260505234006 7 55 6.4 14.5 0.00 0.00 0.00 78 1015.0
20260505233506 7 51 8.0 14.5 0.00 0.00 0.00 78 1014.9
20260505233008 7 49 8.0 14.5 0.00 0.00 0.00 78 1014.8
20260505232505 7 50 8.0 14.5 0.00 0.00 0.00 78 1014.9
20260505232005 7 52 8.0 14.5 0.00 0.00 0.00 78 1014.9
20260505231509 7 61 6.4 14.5 0.00 0.00 0.00 78 1014.9
20260505231006 7 58 6.4 14.5 0.00 0.00 0.00 78 1015.0
20260505230505 7 55 8.0 14.5 0.00 0.00 0.00 78 1015.0
20260505230012 7 54 9.7 17.7 0.00 0.00 0.00 78 1014.9
20260505225505 7 47 9.7 17.7 0.00 0.00 0.00 78 1015.0
20260505225005 7 44 9.7 17.7 0.00 0.00 0.00 78 1015.0
20260505224007 7 56 6.4 17.7 0.00 0.00 0.00 78 1015.0
20260505223506 7 55 8.0 17.7 0.00 0.00 0.00 78 1015.1
20260505223009 8 48 8.0 17.7 0.00 0.00 0.00 77 1015.0
20260505222505 8 49 8.0 16.1 0.00 0.00 0.00 78 1015.0
20260505222005 8 54 8.0 14.5 0.00 0.00 0.00 78 1015.0
20260505221508 8 54 6.4 16.1 0.00 0.00 0.00 79 1015.1
20260505221006 8 61 3.2 16.1 0.00 0.00 0.00 78 1015.0
20260505220505 8 63 4.8 12.9 0.00 0.00 0.00 78 1015.0
20260505215005 8 58 9.7 20.9 0.00 0.00 0.00 78 1014.9
20260505214509 8 48 8.0 20.9 0.00 0.00 0.00 78 1014.8
20260505214006 8 47 8.0 17.7 0.00 0.00 0.00 78 1014.8
20260505213505 8 53 9.7 14.5 0.00 0.00 0.00 78 1014.8
20260505213009 8 56 9.7 17.7 0.00 0.00 0.00 77 1014.7
20260505212005 8 53 11.3 19.3 0.00 0.00 0.00 77 1014.8
20260505211509 8 50 11.3 19.3 0.00 0.00 0.00 77 1014.9
20260505211005 8 46 11.3 27.4 0.00 0.00 0.00 77 1014.9
20260505210506 8 47 12.9 27.4 0.00 0.00 0.00 77 1014.8
20260505210008 8 49 8.0 17.7 0.00 0.00 0.00 77 1014.9
20260505205506 8 50 9.7 20.9 0.00 0.00 0.00 78 1014.8
20260505205006 8 44 11.3 20.9 0.00 0.00 0.00 78 1014.8
20260505204508 8 38 11.3 20.9 0.00 0.00 0.00 78 1014.7
20260505204005 8 39 9.7 16.1 0.00 0.00 0.00 78 1014.6
20260505203505 8 36 9.7 17.7 0.00 0.00 0.00 78 1014.6
20260505203009 8 42 9.7 17.7 0.00 0.00 0.00 78 1014.6
20260505202506 8 45 12.9 24.1 0.00 0.00 0.00 78 1014.5
20260505202005 8 39 14.5 24.1 0.00 0.00 0.00 78 1014.5
20260505200506 9 46 4.8 14.5 0.00 0.00 0.00 78 1014.5
20260505200008 9 38 6.4 14.5 0.00 0.00 0.00 78 1014.5
20260505195005 9 45 8.0 19.3 0.00 0.00 0.00 77 1014.3
20260505194507 9 49 11.3 20.9 0.00 0.00 0.00 76 1014.3
20260505194005 9 48 11.3 20.9 0.00 0.00 0.00 76 1014.2
20260505193506 9 47 9.7 22.5 0.00 0.00 0.00 75 1014.2
20260505192505 10 50 9.7 19.3 0.00 0.00 0.00 75 1014.1
20260505192005 10 60 8.0 20.9 0.00 0.00 0.00 74 1014.1
20260505191509 10 59 6.4 20.9 0.00 0.00 0.00 74 1014.0
20260505190506 10 42 8.0 16.1 0.00 0.00 0.00 75 1014.0
20260505190007 10 41 9.7 16.1 0.00 0.00 0.00 75 1014.0
20260505184509 10 38 12.9 20.9 0.00 0.00 0.00 75 1013.9
20260505184005 10 31 11.3 20.9 0.00 0.00 0.00 76 1013.8
20260505182005 10 53 11.3 19.3 0.00 0.00 0.00 75 1013.7
20260505181507 11 50 9.7 17.7 0.00 0.00 0.00 75 1013.6
20260505181006 11 44 8.0 16.1 0.00 0.00 0.00 75 1013.6
20260505180505 11 44 6.4 16.1 0.00 0.00 0.00 75 1013.6
20260505180009 11 53 4.8 12.9 0.00 0.00 0.00 76 1013.6
20260505175506 11 57 6.4 14.5 0.00 0.00 0.00 75 1013.6
20260505175005 11 62 6.4 16.1 0.00 0.00 0.00 75 1013.6
20260505174508 11 64 6.4 16.1 0.00 0.00 0.00 74 1013.6
20260505174005 11 45 9.7 19.3 0.00 0.00 0.00 74 1013.6
20260505173505 11 35 9.7 19.3 0.00 0.00 0.00 74 1013.6
20260505173007 11 44 8.0 16.1 0.00 0.00 0.00 74 1013.6
20260505172505 11 52 6.4 14.5 0.00 0.00 0.00 73 1013.6
20260505172006 11 55 8.0 16.1 0.00 0.00 0.00 73 1013.6
20260505171507 11 56 9.7 16.1 0.00 0.00 0.00 72 1013.6
20260505171005 11 53 6.4 14.5 0.00 0.00 0.00 71 1013.6
20260505170505 11 353 3.2 12.9 0.00 0.00 0.00 70 1013.7
20260505170008 12 298 3.2 8.0 0.00 0.00 0.00 68 1013.6
20260505165506 12 292 3.2 8.0 0.00 0.00 0.00 67 1013.6
20260505165006 12 282 3.2 8.0 0.00 0.00 0.00 67 1013.5
20260505164507 12 291 4.8 11.3 0.00 0.00 0.00 66 1013.4
20260505164005 12 300 4.8 11.3 0.00 0.00 0.00 67 1013.6
20260505163504 12 301 3.2 11.3 0.00 0.00 0.00 67 1013.6
20260505163009 12 285 3.2 8.0 0.00 0.00 0.00 66 1013.6
20260505162506 12 275 4.8 8.0 0.00 0.00 0.00 66 1013.6
20260505162005 12 288 4.8 8.0 0.00 0.00 0.00 65 1013.6
20260505161508 12 298 3.2 6.4 0.00 0.00 0.00 67 1013.5
20260505161006 12 305 3.2 9.7 0.00 0.00 0.00 65 1013.5
20260505160506 12 298 3.2 9.7 0.00 0.00 0.00 66 1013.5
20260505153008 12 293 3.2 8.0 0.00 0.00 0.00 66 1013.6
20260505152505 12 279 3.2 8.0 0.00 0.00 0.00 69 1013.6
20260505152005 12 254 3.2 8.0 0.00 0.00 0.00 69 1013.6
20260505151508 12 253 4.8 8.0 0.00 0.00 0.00 67 1013.6
20260505151005 12 249 4.8 11.3 0.00 0.00 0.00 69 1013.6
20260505140505 11 305 3.2 8.0 0.00 0.00 0.00 72 1013.8
20260505125004 12 316 4.8 14.5 0.00 0.00 0.00 68 1013.8
20260505123504 11 326 4.8 11.3 0.00 0.00 0.00 69 1013.8
20260505123008 11 321 4.8 12.9 0.00 0.00 0.00 71 1013.8
20260505122505 11 305 4.8 12.9 0.00 0.00 0.00 72 1013.8
20260505122004 11 307 4.8 12.9 0.00 0.00 0.00 73 1013.9
20260505121006 11 314 9.7 17.7 0.00 0.00 0.00 73 1013.8
20260505120506 11 311 8.0 17.7 0.00 0.00 0.00 73 1013.9
20260505120008 11 307 8.0 17.7 0.00 0.00 0.00 73 1013.9
20260505115505 11 312 9.7 17.7 0.00 0.00 0.00 72 1013.9
20260505115004 11 317 9.7 16.1 0.00 0.00 0.00 73 1013.9
20260505114508 11 312 6.4 16.1 0.00 0.00 0.00 71 1013.9
20260505114005 11 306 6.4 14.5 0.00 0.00 0.00 72 1013.9
20260505113008 11 302 6.4 14.5 0.00 0.00 0.00 70 1014.0
20260505112505 11 311 8.0 14.5 0.00 0.00 0.00 70 1014.0
20260505112004 11 310 6.4 14.5 0.00 0.00 0.00 70 1014.0
20260505111005 12 304 6.4 14.5 0.00 0.00 0.00 67 1014.0
20260505110506 12 318 4.8 12.9 0.00 0.00 0.00 66 1013.9
20260505102004 11 283 8.0 12.9 0.00 0.00 0.00 70 1014.2
20260505101508 11 284 8.0 14.5 0.00 0.00 0.00 70 1014.2
20260505101004 11 287 8.0 14.5 0.00 0.00 0.00 71 1014.1
20260505100506 11 291 6.4 12.9 0.00 0.00 0.00 72 1014.2
20260505100008 11 286 6.4 12.9 0.00 0.00 0.00 73 1014.1
20260505094507 11 296 8.0 12.9 0.00 0.00 0.00 71 1014.2
20260505093504 11 298 6.4 16.1 0.00 0.00 0.00 68 1014.2
20260505093007 11 300 6.4 16.1 0.00 0.00 0.00 67 1014.2
20260505092005 11 315 6.4 19.3 0.00 0.00 0.00 66 1014.2
20260505091508 11 326 6.4 17.7 0.00 0.00 0.00 66 1014.2
20260505090505 11 355 8.0 19.3 0.00 0.00 0.00 65 1014.2
20260505090008 11 348 6.4 16.1 0.00 0.00 0.00 66 1014.2
20260505085505 11 335 6.4 16.1 0.00 0.00 0.00 67 1014.2
20260505085004 11 346 9.7 25.7 0.00 0.00 0.00 66 1014.2
20260505084507 11 344 9.7 25.7 0.00 0.00 0.00 68 1014.2
20260505083504 11 319 11.3 20.9 0.00 0.00 0.00 67 1014.3
20260505083007 11 317 9.7 20.9 0.00 0.00 0.00 68 1014.2
20260505082505 11 308 11.3 20.9 0.00 0.00 0.00 72 1014.3
20260505082004 11 316 9.7 20.9 0.00 0.00 0.00 73 1014.3
20260505081507 11 349 6.4 17.7 0.00 0.00 0.00 76 1014.3
20260505081005 10 346 6.4 16.1 0.00 0.00 0.00 79 1014.3
20260505080505 10 340 6.4 14.5 0.00 0.00 0.00 81 1014.3
20260505080007 9 344 6.4 16.1 0.00 0.00 0.00 83 1014.5
20260505075506 9 358 4.8 16.1 0.00 0.00 0.00 84 1014.4
20260505075004 8 25 3.2 6.4 0.00 0.00 0.00 86 1014.3
20260505074507 8 3 3.2 8.0 0.00 0.00 0.00 87 1014.4
20260505074005 8 327 3.2 8.0 0.00 0.00 0.00 88 1014.4
20260505073008 8 19 1.6 6.4 0.00 0.00 0.00 89 1014.4
20260505072505 7 13 1.6 6.4 0.00 0.00 0.00 90 1014.5
20260505072004 7 323 1.6 6.4 0.00 0.00 0.00 90 1014.4
20260505071004 7 352 1.6 6.4 0.00 0.00 0.00 90 1014.6
20260505070505 7 326 3.2 8.0 0.00 0.00 0.00 90 1014.6
20260505070007 7 314 1.6 8.0 0.00 0.00 0.00 90 1014.6
20260505065505 6 344 1.6 4.8 0.00 0.00 0.00 90 1014.7
20260505065005 6 332 3.2 6.4 0.00 0.00 0.00 90 1014.7
20260505064507 6 326 3.2 6.4 0.00 0.00 0.00 90 1014.7
20260505064007 6 327 3.2 4.8 0.00 0.00 0.00 90 1014.7
20260505063504 6 338 3.2 4.8 0.00 0.00 0.00 90 1014.6
20260505063008 6 351 1.6 4.8 0.00 0.00 0.00 90 1014.8
20260505062505 6 0 0.0 3.2 0.00 0.00 0.00 90 1014.8
20260505062004 5 0 0.0 1.6 0.00 0.00 0.00 90 1014.7
20260505061508 5 0 0.0 0.0 0.00 0.00 0.00 90 1014.7
20260505061004 5 0 0.0 0.0 0.00 0.00 0.00 90 1014.7
20260505060007 5 0 0.0 3.2 0.00 0.00 0.00 90 1014.6
20260505055005 4 0 0.0 3.2 0.00 0.00 0.00 90 1014.6
20260505054507 4 160 1.6 3.2 0.00 0.00 0.00 90 1014.6
20260505054004 4 160 1.6 3.2 0.00 0.00 0.00 90 1014.6
20260505053504 3 0 0.0 3.2 0.00 0.00 0.00 90 1014.6
20260505053007 3 0 0.0 3.2 0.00 0.00 0.00 90 1014.6
20260505052504 3 0 0.0 3.2 0.00 0.00 0.00 90 1014.6
20260505051508 3 0 0.0 3.2 0.00 0.00 0.00 90 1014.5
20260505051004 3 0 0.0 3.2 0.00 0.00 0.00 90 1014.5
20260505050505 3 0 0.0 3.2 0.00 0.00 0.00 90 1014.5
20260505041508 3 0 0.0 3.2 0.00 0.00 0.00 90 1014.2
20260505041006 3 0 0.0 3.2 0.00 0.00 0.00 90 1014.2
20260505040504 3 0 0.0 1.6 0.00 0.00 0.00 90 1014.2
20260505040007 3 0 0.0 3.2 0.00 0.00 0.00 90 1014.1
20260505035004 3 0 0.0 0.0 0.00 0.00 0.00 90 1014.2
20260505034508 3 169 1.6 3.2 0.00 0.00 0.00 90 1014.2
20260505034005 3 169 1.6 3.2 0.00 0.00 0.00 90 1014.2
20260505033504 3 0 0.0 3.2 0.00 0.00 0.00 90 1014.2
20260505033008 4 0 0.0 3.2 0.00 0.00 0.00 90 1014.2
20260505032505 4 0 0.0 3.2 0.00 0.00 0.00 90 1014.2
20260505032004 4 0 0.0 0.0 0.00 0.00 0.00 90 1014.1
20260505031508 4 0 0.0 3.2 0.00 0.00 0.00 90 1014.1
20260505031005 4 158 1.6 4.8 0.00 0.00 0.00 90 1014.2
20260505030505 4 158 1.6 4.8 0.00 0.00 0.00 90 1014.3
20260505025504 4 0 0.0 4.8 0.00 0.00 0.00 90 1014.4
20260505025005 4 0 0.0 3.2 0.00 0.00 0.00 90 1014.4
20260505024506 4 0 0.0 3.2 0.00 0.00 0.00 90 1014.4
20260505024004 5 159 1.6 3.2 0.00 0.00 0.00 90 1014.4
20260505023008 5 158 1.6 4.8 0.00 0.00 0.00 90 1014.5
20260505022006 5 0 0.0 0.0 0.00 0.00 0.00 90 1014.5
20260505021507 5 0 0.0 0.0 0.00 0.00 0.00 90 1014.5
20260505021005 5 0 0.0 3.2 0.00 0.00 0.00 90 1014.5
20260505020505 5 158 1.6 4.8 0.00 0.00 0.00 90 1014.5
20260505020008 5 174 3.2 4.8 0.00 0.00 0.00 90 1014.5
20260505015504 5 188 1.6 4.8 0.00 0.00 0.00 90 1014.5
20260505015004 5 0 0.0 0.0 0.00 0.00 0.00 90 1014.5
20260505014507 5 0 0.0 0.0 0.00 0.00 0.00 90 1014.5
20260505014005 5 0 0.0 0.0 0.00 0.00 0.00 90 1014.6
20260505013504 5 0 0.0 3.2 0.00 0.00 0.00 90 1014.6
20260505013006 5 0 0.0 3.2 0.00 0.00 0.00 90 1014.7
20260505012504 5 0 0.0 1.6 0.00 0.00 0.00 90 1014.8
20260505011507 5 0 0.0 0.0 0.00 0.00 0.00 90 1014.8
20260505011005 5 0 0.0 0.0 0.00 0.00 0.00 90 1014.8
20260505010504 5 0 0.0 0.0 0.00 0.00 0.00 90 1014.8
20260505010007 5 0 0.0 0.0 0.00 0.00 0.00 90 1014.9
20260505005504 5 0 0.0 0.0 0.00 0.00 0.00 90 1014.9
20260505005005 5 0 0.0 0.0 0.00 0.00 0.00 90 1014.9
20260505004507 5 0 0.0 0.0 0.00 0.00 0.00 90 1014.9
20260505004005 5 0 0.0 0.0 0.00 0.00 0.00 90 1015.0
20260505003505 6 0 0.0 0.0 0.00 0.00 0.00 90 1014.9